Dewpoint
52 55 55 55 54 54 53 53 52 51 51 49 47 43 41 40 37 32 31 31 29 31 18 18 17 18 16 15 16 18 17 14 14 11 8 7 6 5 4 2 4 4 2 -0 0 1 -5 2 3 3 8 8 10 13
50 51 55 55 54 54 53 53 52 51 50 49 47 44 42 40 37 32 28 29 28 32 25 25 25 24 22 15 20 18 18 14 14 13 13 11 7 6 5 -3 4 6 9 5 1 -5 3 5 5 6 6 8 10 14
48 49 52 55 54 54 53 52 52 51 50 49 47 45 42 40 37 31 29 30 28 29 25 24 23 24 26 25 22 23 17 19 17 16 18 15 10 11 5 3 5 6 4 4 5 2 4 6 6 6 7 8 10 13
47 48 50 52 54 54 53 52 52 51 50 49 47 45 43 40 37 33 31 31 29 32 29 21 23 22 26 26 24 22 20 16 16 19 19 17 13 13 9 8 6 5 5 5 5 5 5 5 5 7 8 9 11 12
46 47 48 50 53 53 53 52 52 51 50 49 47 45 44 40 37 33 32 31 29 34 26 20 22 23 24 23 21 21 22 21 22 20 19 17 15 13 10 9 9 8 9 5 -3 3 6 7 7 8 10 11 12 13
45 46 48 49 50 53 53 52 52 51 50 48 46 45 43 39 35 32 30 33 31 33 26 21 20 22 23 23 24 23 22 20 21 21 20 15 6 15 12 9 14 11 11 11 9 7 8 8 8 9 10 12 13 15
44 46 47 48 49 51 53 52 51 51 50 48 46 44 42 37 36 33 33 33 31 33 26 20 18 21 25 24 24 25 24 22 22 18 17 17 14 17 13 9 15 12 13 11 8 8 10 8 9 9 10 12 14 13
42 44 46 47 49 50 52 52 51 50 49 48 46 44 39 39 37 33 34 32 31 29 29 20 17 17 23 19 19 21 20 21 19 18 15 15 11 12 8 13 12 8 5 7 8 9 12 10 9 10 11 12 11 12
40 42 45 47 48 49 51 52 51 50 49 47 45 41 37 34 30 31 34 33 33 32 26 21 17 16 19 17 19 19 19 14 17 15 14 13 11 8 13 13 10 12 12 14 9 8 8 7 9 10 9 10 10 10
40 41 44 45 48 49 49 52 51 49 47 44 38 33 27 31 38 36 31 28 28 27 26 22 15 15 17 17 16 16 17 14 11 13 14 12 11 14 12 11 12 11 10 6 9 10 7 9 9 8 7 6 7 8
39 41 43 45 47 48 49 51 50 45 42 35 29 26 33 38 31 27 22 24 23 20 21 17 15 13 16 16 16 18 14 13 8 10 10 9 8 12 9 8 9 9 8 6 8 6 6 8 9 6 7 8 9 10
39 41 43 45 46 48 49 49 44 40 35 34 31 33 31 27 24 24 21 18 18 19 15 15 15 16 14 17 16 14 11 9 5 12 9 6 13 12 6 7 5 3 3 2 -0 3 4 5 5 5 5 7 8 10
40 41 43 44 45 48 49 44 44 39 36 33 28 24 25 22 20 21 14 14 15 15 15 15 13 14 14 18 14 12 8 6 10 7 5 10 13 9 7 5 3 -1 -1 0 0 -0 2 3 4 4 7 8 10 14
40 41 42 44 45 48 46 44 41 39 36 29 24 17 21 16 21 23 21 19 18 17 14 14 12 15 16 15 12 8 8 8 5 3 5 13 12 11 8 5 7 6 2 4 5 5 6 8 10 11 12 14 14 15
39 40 42 44 46 47 45 43 42 36 33 29 28 24 18 21 15 16 17 16 16 15 14 15 17 16 15 11 11 7 5 4 4 5 10 14 12 10 8 6 8 7 7 7 7 7 9 10 11 12 14 14 14 14
38 40 41 43 45 47 45 42 33 31 27 27 24 19 18 17 14 15 17 15 15 14 19 20 14 13 11 12 6 5 4 4 12 13 14 9 6 7 7 8 8 8 7 7 8 8 9 10 12 13 13 14 14 14
37 39 44 45 46 46 42 31 28 23 23 21 19 20 21 21 17 16 15 14 13 20 18 16 13 13 13 8 5 8 10 15 15 12 10 6 5 7 9 8 8 8 8 9 10 10 11 12 13 12 12 13 13 15
37 40 42 45 43 35 26 26 23 21 16 17 18 18 19 19 17 17 18 19 20 21 19 18 14 10 9 5 7 14 15 14 10 9 8 9 10 9 9 9 9 10 10 11 11 12 12 12 11 12 13 14 13 14
39 40 43 41 36 29 24 21 23 14 13 15 16 17 17 17 19 19 20 21 21 20 18 15 12 10 10 14 18 17 14 9 5 7 8 10 11 10 10 11 11 11 11 11 10 10 10 10 11 12 12 12 13 13
40 41 42 39 34 24 18 17 23 17 14 15 16 15 15 15 19 20 21 19 19 18 15 11 11 13 14 17 18 15 11 7 7 7 8 9 10 11 11 11 10 10 9 9 10 13 12 12 12 12 13 14 15 15
35 36 35 25 20 18 16 15 14 16 15 12 15 14 12 16 17 17 17 20 17 16 14 15 15 17 13 12 11 8 7 7 6 6 7 9 9 9 9 9 10 8 9 9 9 9 12 11 11 12 15 14 14 15
32 32 25 25 17 15 12 14 14 15 13 12 13 14 11 11 12 15 18 15 14 14 15 16 15 12 8 8 8 8 9 9 8 11 13 13 7 8 8 9 10 12 12 12 11 11 11 11 12 14 14 14 16 16
33 29 24 22 15 13 8 14 12 14 9 8 12 9 9 10 12 15 13 15 13 15 16 14 13 11 10 8 10 10 10 9 9 10 12 9 9 10 11 11 12 11 11 10 10 12 12 14 15 15 15 15 15 15
27 21 19 14 13 7 12 10 12 11 10 10 10 4 4 4 7 8 8 9 12 15 13 11 8 6 7 10 9 9 10 9 7 7 8 8 8 7 8 9 9 10 10 11 12 13 12 13 15 14 13 13 13 13
25 16 17 8 11 9 7 7 9 10 7 8 4 0 0 3 4 4 3 8 13 13 13 10 8 8 10 9 7 8 9 9 8 7 5 7 6 4 6 7 8 9 11 12 11 12 12 11 11 11 11 11 11 11
14 11 10 10 9 10 8 6 8 8 8 7 5 1 2 4 3 5 5 9 12 12 11 11 10 8 7 8 7 7 7 8 8 8 6 6 7 9 9 8 8 9 10 12 10 10 10 9 9 7 9 9 14 14
11 6 9 12 13 12 10 11 10 10 8 3 -0 -1 1 3 6 7 7 6 6 5 8 11 11 9 9 6 6 7 8 8 8 8 7 7 8 8 9 8 7 9 10 9 9 10 10 9 9 8 8 8 7 8
8 8 8 10 10 11 9 9 10 10 10 6 4 2 5 9 7 4 4 3 1 2 5 5 7 9 10 8 6 5 3 1 1 5 7 6 3 5 4 6 7 15 8 8 9 8 9 9 9 8 7 6 7 7
8 12 12 8 9 10 9 10 11 5 5 7 10 7 6 2 2 1 2 1 1 5 5 3 -1 0 2 0 -1 1 4 9 7 3 3 6 5 7 2 3 4 6 7 9 17 16 9 8 9 9 8 7 7 7
7 10 10 10 9 6 -2 -5 -1 -1 1 -0 0 3 3 0 -2 -1 1 1 4 3 -2 0 -2 5 5 6 2 -1 -3 -1 0 6 5 4 4 3 1 1 2 3 2 4 6 6 14 15 14 14 10 5 6 6
7 9 4 2 -2 -6 -7 -7 -4 -2 -2 -2 -3 1 -1 -2 -1 -4 -6 -7 -7 -5 -1 -2 -2 -3 2 3 4 3 0 -1 -7 -7 -5 -3 -3 -1 1 0 2 2 3 3 3 4 5 6 6 5 5 5 4 11
3 1 4 1 -4 -7 -6 -5 -5 -3 -3 -1 -4 -4 -3 -1 -2 -4 -8 -8 -3 -1 4 -5 -4 -5 -12 -13 -11 -8 6 -5 -6 -6 -4 -0 0 1 0 -2 -4 -2 -1 1 1 1 -0 1 3 3 4 3 3 3
-2 -2 -2 -3 -4 -4 -6 -4 -4 -4 -5 -6 -9 -11 -11 -8 -6 -6 -8 -12 -11 -12 -14 -15 -16 -16 -16 -13 -11 -6 -1 -11 -6 8 9 10 10 7 -2 -3 -1 -1 -1 0 1 2 0 -0 -0 -0 -0 -0 1 1
Lifted_Index
6 6 6 6 6 7 7 7 7 8 9 10 11 14 18 19 18 15 13 14 11 7 7 9 11 11 10 9 8 9 9 10 9 7 7 7 7 9 10 10 10 10 9 9 9 8 10 16 18 17 18 19 18 18
7 7 6 6 6 6 7 7 7 8 9 10 11 13 17 19 18 15 13 14 13 8 7 10 13 14 15 14 12 10 10 11 11 10 9 8 8 9 9 9 11 11 11 11 11 11 14 17 19 19 19 19 19 19
9 8 7 7 6 6 6 6 6 7 8 9 10 12 15 18 18 16 14 14 13 9 7 10 13 17 20 20 18 15 14 15 16 15 13 10 9 10 10 10 11 13 14 13 13 15 17 19 19 20 20 20 20 20
11 10 9 7 7 6 6 6 6 6 7 8 9 11 14 17 18 16 15 15 13 9 6 8 13 17 21 22 21 20 19 19 18 17 13 10 11 12 12 12 12 14 14 13 13 16 18 19 20 20 20 20 20 20
11 11 10 9 8 7 6 6 5 6 6 8 9 10 12 16 17 16 15 16 16 11 7 8 12 17 20 21 22 22 21 19 17 15 12 12 13 14 13 12 13 14 15 14 14 17 19 19 20 20 20 20 20 20
12 11 10 10 8 7 6 6 5 5 5 7 9 9 11 14 15 13 12 16 18 15 9 7 10 14 18 20 20 20 20 19 17 14 13 14 16 15 12 11 13 15 16 16 17 18 19 20 20 20 20 20 20 20
13 12 11 10 9 8 7 6 5 5 5 6 8 9 11 14 14 12 11 15 18 17 11 8 9 13 16 17 17 18 19 19 18 16 14 14 15 15 11 10 14 16 18 19 19 19 19 20 20 20 20 20 21 21
14 14 12 11 10 8 7 7 6 5 5 7 9 11 12 14 14 12 13 17 18 15 10 8 8 11 14 13 13 16 16 17 17 15 14 13 13 13 11 12 15 17 18 19 20 20 20 20 20 21 21 20 20 20
15 14 13 12 11 9 8 7 6 7 7 9 11 12 13 14 13 13 15 18 17 14 10 9 8 9 12 11 11 13 13 12 13 13 13 12 11 10 12 14 16 17 18 18 19 20 20 20 20 21 21 20 20 20
14 14 13 12 11 10 8 8 8 9 11 11 11 12 13 15 15 14 14 14 13 13 11 10 9 9 10 10 9 10 10 9 8 10 12 10 8 10 14 16 17 18 18 19 19 19 20 20 20 20 20 21 20 20
13 13 12 11 10 10 9 8 9 11 12 12 11 13 16 17 15 12 10 9 10 11 11 10 9 9 11 10 9 9 9 7 7 9 9 7 7 11 15 17 18 19 19 20 20 20 20 20 20 20 20 20 21 21
12 12 11 10 9 9 9 9 10 11 12 12 12 15 16 15 12 9 8 8 8 9 9 8 8 10 12 12 11 9 8 7 9 10 8 6 8 13 16 17 18 19 19 20 20 21 21 21 21 20 20 20 21 21
12 12 11 10 9 8 9 9 10 11 12 12 12 12 12 10 8 7 6 7 8 8 8 7 7 9 12 13 11 9 8 8 10 8 6 7 11 15 17 18 18 19 19 20 20 20 21 21 21 20 20 20 20 21
11 11 11 10 8 8 8 9 10 11 11 10 10 8 8 7 7 6 7 7 7 7 7 7 7 9 10 10 9 8 8 8 7 5 6 9 13 16 17 18 18 19 19 20 20 20 20 20 20 21 21 21 20 20
9 10 11 10 8 7 8 9 10 10 9 9 8 7 7 7 7 7 7 8 8 9 8 8 7 8 8 8 8 7 6 6 5 6 9 12 15 17 17 18 18 19 19 19 20 20 20 20 20 20 21 21 21 20
8 8 9 9 8 7 8 9 10 10 9 8 7 7 6 6 6 6 6 8 9 10 9 8 7 7 7 6 6 6 5 5 6 9 12 15 16 17 17 18 18 19 19 19 19 20 20 20 20 20 20 21 21 20
7 7 7 8 8 8 9 10 10 9 8 7 7 6 6 6 6 6 6 8 9 9 8 7 6 6 6 5 5 5 6 7 10 13 15 16 17 17 17 18 18 19 19 19 19 19 20 20 19 19 20 20 20 20
6 6 6 6 8 9 10 10 10 9 8 8 7 7 6 6 6 6 7 8 9 9 7 7 6 5 5 5 5 7 8 11 13 15 16 17 17 17 18 18 19 19 19 19 19 19 19 19 19 19 20 20 20 20
6 5 5 6 7 9 10 10 10 9 8 8 8 7 7 7 7 8 8 9 10 10 9 7 7 6 6 7 8 9 11 13 15 16 16 17 17 17 18 18 19 19 19 19 19 19 19 19 19 19 20 20 19 18
5 5 5 6 7 8 9 9 9 9 9 9 9 8 8 8 8 8 9 10 10 10 9 8 7 8 9 10 12 13 14 15 15 16 16 16 17 17 18 18 18 19 19 19 19 18 18 18 19 19 19 19 18 17
5 5 5 6 7 7 8 9 9 9 9 9 9 9 9 8 8 9 10 10 10 9 8 8 9 10 12 13 15 15 16 16 16 16 16 16 17 17 18 18 18 18 18 18 18 18 18 18 18 19 18 18 17 17
6 6 6 6 6 6 8 9 9 9 9 9 9 9 9 8 9 10 10 10 9 9 9 10 11 13 14 14 15 16 17 17 17 16 16 17 17 17 17 18 18 17 17 17 17 17 17 17 18 18 17 17 16 16
6 6 6 5 5 5 7 8 8 8 8 8 8 9 9 9 10 11 10 10 9 9 10 12 13 14 14 14 15 16 17 17 17 17 17 17 17 17 17 17 17 17 16 16 17 17 17 17 17 17 16 15 15 15
5 5 5 4 4 4 6 7 7 7 7 7 7 8 9 10 11 10 10 9 9 10 11 12 13 14 14 13 14 15 17 17 17 17 17 17 17 17 17 17 17 16 16 16 16 16 16 16 16 15 14 14 14 13
4 4 4 4 3 4 5 5 6 6 6 7 7 8 9 10 10 9 9 9 9 9 10 11 11 12 12 12 13 14 16 17 17 17 17 17 17 17 16 16 16 16 16 16 15 15 15 15 14 14 13 13 13 12
4 4 4 4 4 4 4 5 6 6 7 7 7 8 9 9 8 9 9 9 9 10 10 11 11 11 11 11 12 14 16 17 17 17 17 17 17 16 16 15 15 15 16 16 15 15 14 14 13 13 12 12 12 12
3 3 4 4 4 5 5 6 7 7 7 7 7 8 8 8 8 9 10 11 12 12 12 12 12 12 12 13 14 15 17 18 17 17 17 17 17 16 16 15 15 15 16 15 15 14 14 13 12 12 12 12 12 12
4 4 4 4 5 6 6 7 7 7 8 8 7 7 7 8 9 10 13 14 14 14 14 14 14 15 15 15 16 17 17 18 17 17 16 16 16 16 16 16 16 16 16 15 15 14 13 13 12 12 12 11 12 12
4 4 4 4 5 6 7 7 8 8 9 9 8 8 8 10 12 14 15 16 16 15 15 15 15 16 16 16 17 17 17 17 16 15 15 14 14 15 15 16 16 16 15 15 14 14 13 13 12 12 12 12 12 12
5 5 5 5 5 6 8 9 10 10 10 10 10 10 10 12 15 17 17 16 16 16 16 16 16 16 16 16 16 16 17 16 16 15 14 14 14 15 15 15 15 15 15 14 14 13 13 13 12 12 12 11 11 11
6 6 5 5 5 7 9 10 11 11 11 11 12 11 12 13 15 17 17 17 17 16 16 16 16 16 16 16 16 16 16 16 16 15 15 15 15 15 15 15 15 15 15 14 13 13 13 12 12 12 11 11 11 10
6 6 6 5 6 7 9 10 10 11 11 11 12 13 13 13 14 16 18 18 17 17 17 17 17 17 16 16 16 16 16 16 16 15 15 15 15 15 15 15 15 15 14 13 13 13 13 12 12 12 11 11 10 10
7 7 6 6 6 7 9 10 10 10 11 11 12 13 13 13 13 16 18 19 18 17 17 17 17 17 16 16 16 16 16 16 15 15 16 16 15 15 15 15 14 14 13 13 13 13 13 12 12 11 11 11 10 10